Temperature
20 21 20 20 20 20 18 18 17 17 15 14 13 14 14 15 14 14 14 14 14 14 13 13 13 13 12 12 12 12 12 12 12 12 12 12 12 11 11 11 11 11 11 11
19 20 20 18 19 19 19 18 17 15 15 14 14 15 14 14 14 14 13 14 13 13 13 13 13 13 12 12 12 12 11 12 12 12 12 12 11 11 11 11 11 11 10 11
18 20 20 16 18 17 17 16 15 14 13 13 12 13 14 14 14 14 14 14 13 13 13 13 12 12 12 11 11 11 11 11 11 11 11 11 11 11 11 11 11 10 10 10
17 18 19 18 19 18 17 14 15 15 13 13 13 14 14 14 14 14 13 13 13 12 12 12 12 11 11 11 10 10 10 10 10 10 10 10 10 10 10 10 10 10 10 10
16 17 18 18 18 18 17 15 14 13 13 14 14 13 13 14 13 13 13 12 12 11 11 11 10 10 9 9 9 8 8 8 8 8 8 8 8 9 9 9 9 9 9 9
16 17 17 17 18 18 17 15 14 14 13 14 12 10 11 13 13 12 11 11 10 10 9 9 8 7 7 7 6 6 6 6 6 6 6 6 7 7 7 8 8 8 9 9
16 16 16 17 17 16 13 13 14 15 15 14 12 11 13 13 12 11 10 10 9 8 7 7 6 6 5 5 4 4 4 4 4 4 5 5 5 5 6 6 7 7 7 7
15 15 15 16 16 14 13 15 15 15 15 14 14 13 13 12 11 10 9 8 7 7 6 6 5 4 4 4 3 3 3 3 3 4 4 4 4 4 4 5 5 6 6 6
15 14 16 17 16 16 16 16 15 15 14 14 13 12 11 11 10 9 8 7 6 5 4 4 4 4 3 3 3 3 3 3 3 3 4 4 4 4 4 4 5 5 5 6
15 15 16 16 16 16 16 15 15 14 14 13 12 11 10 9 9 8 7 6 5 4 4 4 4 4 4 3 3 3 3 3 3 3 3 4 4 4 4 4 4 5 5 5
15 16 16 16 16 16 15 15 14 14 13 12 11 10 9 9 8 7 6 5 5 4 4 4 4 4 4 4 3 3 3 3 3 3 3 3 4 4 4 4 4 4 5 5
14 15 14 16 16 15 15 14 13 13 12 11 10 9 9 8 7 6 5 5 5 4 4 4 4 4 4 4 4 3 3 3 3 3 3 3 3 4 4 4 5 5 5 5
18 17 16 16 15 15 14 14 13 12 11 10 10 9 8 7 7 6 5 5 5 4 4 4 4 5 5 5 4 4 4 4 3 3 3 3 4 4 4 5 5 5 5 6
17 17 16 16 15 14 14 13 12 11 10 10 9 9 8 7 6 6 6 5 5 5 5 5 5 5 5 5 5 4 4 4 3 4 4 4 4 4 4 5 5 6 6 6
17 16 16 15 15 14 13 12 12 11 10 9 9 8 7 7 6 6 6 6 5 5 5 5 6 6 6 6 5 5 4 4 4 4 4 4 4 4 5 5 6 6 6 6
17 16 16 15 14 13 13 12 11 10 9 9 8 8 7 7 7 7 7 6 6 5 5 5 6 6 6 6 6 6 5 5 4 4 4 5 5 5 5 5 6 6 6 6
17 16 15 14 14 13 12 11 10 10 9 9 8 7 7 7 7 7 7 7 6 6 6 6 6 7 7 7 7 7 6 6 5 5 5 5 5 5 6 6 6 6 6 6
17 16 15 15 14 13 12 11 10 9 9 8 8 7 7 7 7 7 7 7 7 7 7 7 7 7 7 7 7 7 7 6 6 6 6 5 5 6 6 6 6 6 6 6
16 16 15 14 13 13 12 10 10 9 9 8 8 7 6 6 7 7 7 7 7 7 7 7 8 8 7 7 7 7 7 7 7 6 6 6 6 6 7 7 7 7 7 7
16 15 15 14 13 12 11 10 10 9 8 8 7 7 7 7 7 7 7 7 7 7 7 7 7 8 8 8 7 7 7 7 7 7 7 7 7 7 7 7 7 7 7 7
16 15 15 14 13 12 11 10 9 9 8 8 7 6 6 6 6 7 7 7 7 7 7 7 7 8 8 8 8 8 7 7 7 7 7 6 7 7 7 7 7 7 7 7
16 15 14 13 12 11 10 10 9 9 8 8 7 6 6 6 6 7 6 6 7 7 7 7 7 7 8 9 9 9 8 8 7 7 6 6 6 6 6 7 7 7 7 7
15 14 14 13 12 11 10 10 9 9 8 7 6 6 6 6 6 6 6 7 7 7 7 7 7 7 9 10 10 9 9 9 8 8 7 7 6 6 6 6 6 6 6 7
15 14 14 13 12 11 10 10 9 8 8 7 6 6 5 6 6 5 6 7 7 7 7 7 7 7 8 10 10 10 10 9 9 9 8 8 7 7 7 6 6 6 7 7
15 14 13 12 12 11 10 9 9 9 8 7 6 5 5 5 4 5 5 6 7 7 7 8 8 8 8 9 10 11 11 10 10 10 9 9 9 8 8 7 7 7 7 8
14 14 13 12 12 11 10 10 9 9 7 6 6 5 5 5 4 4 4 5 6 6 6 6 7 7 8 9 10 10 11 11 11 11 10 10 10 9 9 9 9 9 9 9
14 14 13 12 11 11 10 10 9 8 7 6 5 5 5 4 4 4 4 4 4 4 4 4 5 6 7 8 9 10 10 11 11 11 11 11 11 10 10 10 10 10 10 11
Wind_Speed
2 5 10 10 10 10 9 5 2 3 2 3 6 6 7 8 11 8 6 9 10 9 9 9 9 10 10 10 10 11 12 13 15 16 15 12 11 11 11 9 10 10 10 9
6 9 10 8 9 7 6 5 3 3 1 4 6 7 9 11 13 10 10 11 12 11 11 11 11 11 10 10 11 11 11 13 14 14 14 13 13 12 11 10 10 10 10 10
5 5 2 5 5 6 4 4 5 2 5 7 8 9 10 11 11 11 13 14 14 12 12 12 11 11 11 11 10 10 11 12 12 12 13 14 14 12 12 12 10 10 10 9
1 6 3 3 3 6 5 5 4 1 6 7 9 10 9 11 11 13 15 13 13 12 13 12 11 10 9 9 8 8 9 10 9 7 9 9 9 9 10 8 8 8 8 7
3 3 2 0 4 3 2 4 2 4 8 9 10 7 7 10 11 12 14 14 13 13 14 11 10 9 8 8 7 7 7 7 7 7 7 7 7 8 7 6 7 7 6 7
4 3 3 3 5 4 2 2 3 7 9 10 9 8 7 9 11 11 12 11 11 11 10 9 9 9 9 10 10 11 11 10 9 8 8 8 8 8 7 7 7 7 7 8
3 3 3 3 5 5 5 7 9 8 9 8 6 8 11 13 11 10 11 11 10 10 9 10 11 10 11 13 14 15 15 14 12 11 10 10 9 8 8 7 7 7 8 8
2 3 6 4 4 3 6 8 8 8 7 8 9 11 11 11 11 12 12 11 9 10 13 14 13 13 16 17 16 15 16 16 15 13 12 12 8 7 8 8 8 8 8 9
6 6 5 1 5 6 7 7 7 6 8 8 9 9 10 10 11 11 11 10 11 15 17 16 14 13 16 17 15 15 15 16 15 14 12 10 8 9 8 8 7 7 7 8
2 3 4 3 2 5 5 5 6 7 8 8 9 10 10 10 10 11 11 12 15 17 18 17 16 15 15 16 14 14 15 14 13 11 10 9 8 7 6 6 7 7 7 8
3 3 2 5 6 7 6 7 7 8 8 9 9 9 9 10 11 12 14 15 16 16 17 18 17 16 16 15 14 15 14 13 11 10 9 8 8 7 8 7 8 8 7 6
6 7 4 6 7 5 6 7 8 9 9 9 8 9 10 11 11 13 17 15 16 16 16 17 17 17 16 15 14 14 13 11 8 7 7 6 6 7 10 12 14 16 14 9
7 7 6 4 3 4 4 6 8 8 8 8 8 8 10 11 13 16 16 16 16 16 16 16 16 17 17 16 16 14 12 10 7 6 5 4 5 5 6 5 4 7 8 6
7 5 1 1 1 2 4 6 7 7 7 7 7 8 10 11 14 17 17 16 15 15 15 15 16 17 17 17 17 15 11 10 7 4 3 4 4 4 3 3 2 1 2 6
6 5 4 2 2 4 5 5 6 6 7 7 7 9 11 13 15 16 15 14 15 14 14 14 16 17 17 17 16 13 9 5 4 4 3 3 3 2 2 2 1 2 3 5
6 5 4 4 4 3 4 5 4 6 6 7 8 10 12 12 12 13 14 14 15 16 14 14 15 17 17 16 15 10 7 8 5 3 3 3 2 2 2 1 2 4 4 4
6 4 3 3 2 2 2 3 3 4 4 6 8 10 12 13 14 16 17 16 14 13 12 13 16 18 17 14 12 9 7 6 7 4 3 2 2 1 1 1 2 4 4 5
8 8 9 7 5 2 3 4 4 3 3 5 8 9 11 12 13 15 16 16 15 14 13 15 17 18 15 13 10 8 7 5 4 4 3 3 2 1 1 1 4 5 4 4
9 9 9 8 6 4 2 3 2 1 2 5 8 9 9 10 10 12 14 14 14 15 18 20 23 17 13 12 12 7 7 6 5 4 2 2 2 2 2 1 3 5 5 4
9 10 9 8 6 3 1 2 1 2 3 6 7 9 11 12 11 13 14 12 10 12 18 21 19 15 14 11 11 6 6 5 5 5 4 2 2 3 3 3 4 5 5 4
11 10 9 8 5 2 1 1 3 3 4 6 6 8 10 11 11 11 12 11 14 18 20 21 16 15 15 14 12 7 6 5 4 3 2 3 3 4 5 5 5 4 4 3
9 9 9 7 5 1 1 3 5 4 4 6 7 8 9 11 12 11 8 7 13 20 17 13 14 19 22 18 10 8 6 5 4 3 2 2 0 2 3 3 3 2 3 3
8 8 8 7 5 3 3 5 5 4 4 5 7 8 9 9 8 10 12 12 13 20 16 12 19 26 24 15 12 12 11 8 4 2 2 3 3 3 3 3 2 2 3 3
8 8 8 7 6 5 6 5 4 3 4 5 6 7 7 8 8 7 8 13 17 18 13 14 21 24 20 13 13 12 12 11 8 4 1 1 3 3 3 3 3 3 3 3
9 8 6 6 6 6 7 6 5 4 5 5 6 6 6 6 7 9 10 12 16 16 12 15 19 20 15 13 13 13 12 11 11 9 7 4 2 3 3 4 4 3 3 3
8 6 5 6 6 7 7 6 4 3 3 4 5 5 6 6 8 8 8 11 14 14 13 12 13 13 12 13 13 14 13 13 13 11 11 9 7 4 2 3 5 4 4 4
8 6 4 4 6 8 8 6 6 4 3 3 4 5 6 7 8 9 10 10 11 11 11 11 11 11 11 12 13 13 13 12 12 12 11 10 8 6 5 4 2 2 3 4
Wind_Direction
316 98 83 68 52 59 74 79 88 327 98 7 332 326 314 312 318 311 311 308 296 283 269 265 264 263 259 258 260 262 261 254 247 246 245 244 246 252 255 255 256 259 264 258
20 103 98 75 45 37 46 36 34 55 79 307 314 333 327 322 320 302 293 296 290 279 268 262 259 257 256 258 261 264 260 254 249 245 241 238 239 243 248 251 253 254 257 259
326 314 92 27 32 47 39 47 77 37 299 309 325 320 309 310 310 292 295 303 300 289 275 268 264 263 264 266 270 273 269 264 257 247 237 232 229 226 228 231 235 242 248 252
326 9 348 217 78 67 101 111 70 342 292 293 295 292 286 290 290 297 303 303 297 291 287 283 281 283 282 285 288 287 286 287 283 267 249 236 223 216 213 205 203 214 226 237
69 325 246 119 14 11 309 205 76 353 322 311 297 299 283 274 282 287 290 293 297 299 298 297 298 300 303 305 306 305 303 301 301 304 292 269 244 232 222 214 211 213 218 229
44 328 263 275 324 302 341 279 297 337 312 304 325 330 291 281 288 292 300 303 304 306 309 316 317 317 314 309 306 300 294 286 280 276 274 273 266 253 237 223 227 232 238 237
52 292 267 322 320 33 54 281 290 287 288 302 304 272 282 300 307 313 311 309 318 332 338 328 320 316 310 305 301 299 297 291 284 277 270 264 257 249 244 240 240 239 243 245
81 340 279 319 47 72 248 253 272 281 291 294 281 280 293 307 313 318 320 328 339 333 322 316 313 310 307 303 301 301 299 295 289 283 278 278 262 252 246 243 242 237 237 250
183 215 235 141 160 217 230 266 284 294 296 290 298 306 315 317 322 326 328 329 329 326 323 322 318 312 308 305 303 301 300 297 293 288 280 273 268 265 257 241 232 231 233 246
263 221 185 166 296 299 296 306 309 305 303 315 321 321 325 330 330 328 327 332 334 331 329 325 321 314 307 305 302 297 296 296 293 288 279 273 268 262 256 243 234 235 236 240
268 276 313 319 314 309 335 348 336 328 326 335 338 334 337 335 329 331 337 337 334 331 327 324 322 319 314 311 305 299 293 290 288 281 276 272 267 259 253 246 239 233 233 229
224 228 207 262 284 345 13 348 338 344 346 346 346 343 342 333 331 337 340 337 332 329 327 324 324 321 318 315 311 306 300 294 287 282 274 267 270 276 259 249 253 242 236 234
190 191 188 248 337 15 6 351 354 0 357 349 348 347 340 333 336 341 341 337 332 329 328 326 326 323 322 322 319 314 310 306 297 288 273 265 270 274 285 287 281 252 233 215
167 146 82 356 298 352 13 8 10 2 352 352 349 340 337 335 340 343 339 334 329 327 328 329 328 324 324 325 324 323 322 325 331 309 283 277 278 273 268 279 294 36 61 69
160 146 170 169 69 27 17 15 13 349 346 354 346 338 337 341 342 338 334 332 330 329 331 332 331 327 327 328 328 330 331 328 329 331 325 312 311 319 319 306 237 135 110 73
160 134 112 90 56 25 17 18 5 345 353 352 345 336 335 337 337 337 337 337 334 331 329 332 332 328 328 329 330 330 332 339 341 328 332 337 335 333 332 344 123 136 138 140
156 170 149 130 104 60 33 18 1 356 357 349 336 330 332 338 344 345 340 335 328 321 324 334 333 329 328 328 329 330 329 331 339 336 334 335 336 317 293 45 104 130 141 166
164 163 156 148 144 106 32 6 0 8 354 331 327 331 335 340 342 339 335 332 332 334 339 338 332 328 324 327 334 338 340 333 332 326 326 339 350 2 42 107 110 119 137 157
144 137 133 127 127 115 75 340 335 355 352 331 330 330 325 328 333 338 337 336 338 340 337 333 327 326 320 323 333 333 341 345 340 328 308 305 317 304 284 203 130 133 144 147
139 139 136 130 121 115 30 317 2 55 354 326 330 334 338 339 342 343 339 335 335 335 329 328 328 328 325 315 314 303 304 315 332 342 352 5 19 29 43 68 94 114 127 133
151 150 145 138 128 112 329 15 80 68 351 344 349 338 334 333 337 340 341 340 336 336 334 328 334 337 335 329 314 297 287 282 286 308 341 7 37 53 57 61 71 94 114 118
160 156 152 146 147 199 315 94 101 79 14 6 356 343 342 342 342 341 336 334 330 331 335 333 340 341 341 339 344 336 316 289 267 251 250 258 165 97 82 76 74 94 122 131
165 164 160 162 170 173 121 108 104 75 37 17 359 349 346 340 339 343 342 337 335 332 335 336 344 345 345 352 359 2 2 356 338 272 230 220 207 179 155 140 135 127 134 141
170 175 175 177 160 138 131 131 120 82 56 22 359 351 350 344 342 343 331 328 336 335 338 343 349 352 352 356 360 5 8 6 4 7 37 151 163 168 166 159 157 154 157 165
175 178 181 175 161 152 148 141 110 65 45 10 353 351 354 348 338 334 337 343 345 345 351 353 353 354 359 355 356 359 3 3 3 8 23 42 95 155 169 175 180 183 187 185
171 182 195 192 167 145 137 126 107 80 46 10 346 341 348 350 346 346 348 349 350 350 358 1 358 357 360 357 355 357 359 360 3 7 8 13 23 46 105 169 184 186 180 173
170 179 179 158 141 134 130 125 120 109 72 32 348 339 347 354 360 359 357 358 357 355 356 1 4 4 4 4 1 359 358 359 2 3 1 1 6 15 27 51 109 154 164 167
Height
1515 1511 1512 1515 1514 1513 1518 1521 1528 1526 1526 1527 1523 1519 1516 1512 1508 1503 1499 1495 1491 1486 1482 1478 1474 1470 1466 1461 1457 1453 1449 1446 1443 1441 1439 1438 1437 1436 1436 1435 1434 1433 1433 1433
1519 1514 1513 1519 1518 1518 1518 1520 1522 1524 1525 1522 1519 1515 1511 1507 1502 1497 1493 1489 1484 1480 1475 1470 1465 1461 1456 1452 1448 1444 1440 1437 1434 1432 1430 1428 1428 1428 1428 1428 1428 1427 1427 1427
1527 1516 1515 1529 1523 1522 1523 1524 1525 1529 1527 1520 1517 1512 1508 1503 1498 1494 1488 1482 1477 1472 1467 1462 1456 1451 1445 1441 1437 1434 1431 1428 1425 1422 1420 1418 1418 1418 1419 1419 1420 1421 1421 1421
1530 1528 1531 1529 1518 1518 1521 1525 1523 1522 1521 1517 1512 1508 1505 1500 1494 1488 1482 1476 1470 1464 1458 1453 1447 1442 1436 1431 1427 1423 1420 1417 1414 1412 1410 1410 1409 1409 1410 1411 1411 1412 1413 1413
1536 1535 1529 1523 1519 1518 1520 1523 1521 1519 1515 1510 1506 1502 1498 1495 1490 1484 1478 1471 1465 1459 1452 1445 1439 1433 1427 1421 1416 1412 1408 1406 1404 1402 1401 1400 1400 1400 1401 1402 1402 1403 1403 1404
1534 1535 1535 1529 1520 1516 1516 1521 1517 1514 1510 1505 1500 1500 1493 1488 1483 1477 1471 1465 1458 1451 1444 1437 1430 1423 1417 1411 1406 1401 1397 1393 1391 1389 1389 1389 1389 1389 1390 1391 1392 1393 1393 1393
1536 1537 1530 1524 1519 1518 1529 1528 1515 1511 1507 1502 1499 1496 1488 1481 1476 1471 1465 1458 1451 1443 1436 1429 1422 1415 1408 1402 1396 1391 1386 1381 1377 1376 1375 1375 1376 1377 1379 1380 1381 1381 1382 1382
1537 1539 1537 1521 1520 1524 1525 1516 1512 1507 1504 1500 1495 1489 1483 1478 1472 1465 1458 1451 1443 1436 1428 1421 1413 1406 1398 1391 1386 1380 1375 1370 1367 1364 1364 1364 1364 1365 1367 1368 1369 1370 1371 1372
1529 1530 1521 1520 1520 1519 1516 1513 1509 1505 1501 1496 1490 1484 1479 1473 1467 1461 1453 1446 1438 1429 1421 1413 1406 1399 1391 1384 1379 1373 1368 1363 1360 1357 1355 1355 1355 1355 1356 1357 1358 1360 1361 1362
1521 1519 1519 1518 1517 1515 1512 1509 1506 1502 1497 1492 1487 1481 1475 1470 1463 1456 1448 1440 1431 1423 1415 1407 1400 1393 1386 1379 1372 1367 1361 1357 1354 1351 1349 1349 1349 1349 1349 1349 1350 1351 1353 1355
1520 1517 1516 1514 1513 1511 1508 1505 1502 1498 1494 1489 1483 1478 1472 1466 1459 1451 1443 1435 1427 1419 1411 1403 1395 1388 1381 1374 1367 1361 1355 1351 1348 1346 1344 1344 1343 1343 1343 1344 1345 1346 1347 1350
1518 1513 1514 1512 1510 1508 1505 1502 1498 1494 1490 1486 1481 1475 1469 1462 1455 1447 1439 1431 1423 1415 1408 1401 1393 1386 1379 1371 1364 1357 1351 1346 1344 1342 1340 1340 1340 1340 1340 1340 1341 1342 1343 1345
1508 1509 1509 1509 1507 1505 1502 1499 1495 1491 1487 1483 1478 1473 1466 1459 1451 1444 1436 1428 1421 1413 1406 1399 1392 1385 1378 1370 1363 1356 1350 1345 1341 1339 1338 1338 1338 1338 1338 1339 1339 1339 1340 1342
1505 1506 1505 1505 1504 1501 1499 1496 1493 1489 1485 1481 1476 1470 1463 1456 1449 1441 1434 1426 1419 1412 1406 1399 1392 1385 1378 1371 1363 1356 1350 1345 1342 1339 1338 1339 1339 1338 1338 1338 1338 1338 1339 1341
1502 1502 1502 1502 1500 1498 1495 1492 1489 1485 1482 1477 1472 1467 1459 1453 1447 1440 1432 1425 1418 1411 1405 1398 1392 1386 1379 1372 1365 1358 1352 1347 1344 1342 1341 1340 1340 1340 1340 1339 1339 1338 1340 1342
1499 1499 1499 1498 1496 1494 1492 1489 1486 1482 1478 1474 1469 1464 1457 1451 1444 1438 1431 1424 1416 1409 1403 1397 1391 1386 1380 1374 1367 1361 1355 1351 1347 1345 1344 1343 1342 1342 1341 1341 1341 1341 1342 1344
1495 1495 1495 1494 1493 1491 1489 1486 1483 1480 1476 1472 1467 1461 1454 1448 1441 1435 1429 1422 1416 1409 1403 1397 1391 1386 1380 1375 1369 1363 1358 1354 1351 1348 1346 1345 1344 1343 1342 1342 1343 1343 1345 1346
1492 1492 1491 1490 1489 1488 1486 1483 1481 1477 1474 1470 1465 1459 1452 1446 1440 1434 1428 1421 1415 1408 1402 1396 1390 1385 1380 1375 1370 1365 1361 1357 1354 1351 1348 1347 1346 1345 1344 1344 1345 1346 1347 1348
1489 1489 1488 1487 1486 1484 1483 1481 1478 1475 1471 1467 1462 1457 1451 1445 1439 1434 1428 1421 1414 1407 1401 1395 1389 1384 1379 1374 1369 1365 1362 1359 1356 1353 1350 1349 1347 1346 1346 1346 1347 1348 1348 1349
1485 1485 1484 1483 1482 1481 1479 1478 1475 1472 1468 1464 1459 1454 1448 1443 1438 1432 1427 1421 1415 1409 1402 1396 1389 1383 1377 1371 1366 1362 1359 1357 1356 1354 1352 1351 1349 1348 1348 1348 1349 1350 1351 1352
1481 1481 1480 1479 1478 1478 1476 1474 1472 1469 1466 1461 1456 1451 1446 1441 1437 1431 1425 1420 1415 1409 1403 1396 1390 1384 1377 1372 1366 1360 1356 1354 1353 1353 1352 1352 1351 1350 1350 1351 1351 1353 1354 1356
1477 1477 1476 1475 1475 1475 1474 1472 1469 1466 1463 1459 1454 1449 1444 1439 1434 1430 1426 1421 1415 1409 1404 1397 1392 1386 1380 1374 1368 1362 1357 1353 1351 1350 1350 1350 1351 1351 1352 1352 1353 1354 1356 1358
1475 1474 1473 1472 1471 1471 1470 1469 1467 1464 1460 1456 1451 1447 1443 1439 1434 1429 1424 1419 1414 1409 1404 1398 1393 1388 1382 1377 1371 1366 1361 1357 1353 1350 1349 1349 1349 1350 1352 1353 1354 1355 1357 1359
1471 1471 1470 1469 1468 1468 1467 1466 1464 1462 1459 1454 1450 1445 1442 1437 1433 1430 1425 1420 1415 1409 1403 1398 1393 1389 1383 1379 1374 1370 1366 1362 1359 1356 1353 1351 1350 1351 1352 1353 1355 1357 1359 1361
1467 1467 1467 1466 1465 1464 1464 1463 1462 1460 1457 1453 1449 1445 1441 1437 1433 1429 1424 1419 1414 1409 1403 1397 1392 1388 1384 1380 1376 1373 1370 1367 1365 1362 1360 1357 1356 1355 1355 1357 1358 1360 1362 1364
1462 1464 1465 1464 1462 1460 1460 1460 1459 1457 1454 1452 1449 1445 1440 1436 1432 1428 1424 1419 1414 1409 1403 1397 1392 1388 1385 1382 1379 1376 1373 1371 1369 1367 1365 1364 1363 1362 1361 1361 1362 1364 1366 1369
1456 1460 1462 1461 1458 1456 1456 1457 1457 1455 1453 1450 1448 1444 1440 1436 1433 1429 1424 1420 1415 1410 1405 1400 1395 1390 1387 1385 1382 1379 1376 1374 1372 1370 1369 1368 1368 1368 1368 1368 1369 1370 1372 1374